Flag for Germany Weather past 2 weeks in Remscheid, North Rhine-Westphalia, Germany

Now
50 °F

Sunny.


Feels Like: 49 °F
Forecast: 39 / 59 °F
Wind: 3 mph from Northwest

Location: Duesseldorf

Current Time: Apr 19, 2015 at 11:51:02 AM

Latest Report: Apr 19, 2015 at 11:20 AM


Visibility: 10 mi

Pressure: 30.18 "Hg

Humidity: 71%

Dew point: 41 °F

Location of RemscheidLocation

Historic Weather in Remscheid — Graph

°F

Remscheid temperature yesterday

Maximum temperature yesterday: 57 °F (at 2:20 PM)
Minimum temperature yesterday: 36 °F (at 4:50 AM)
Average temperature yesterday: 47 °F

Past Weeks' High & Low Weather Summary

 TemperatureHumidityPressure
High75 °F (Apr 15, 3:20 PM)100% (Apr 7, 6:50 AM)30.66 "Hg (Apr 7, 6:50 AM)
Low28 °F (Apr 7, 6:50 AM)25% (Apr 12, 4:50 PM)29.92 "Hg (Apr 15, 6:50 PM)
Average50 °F65%30.26 "Hg
* Reported Apr 4 10:20 AM — Apr 19 10:20 AM, Remscheid, Weather by CustomWeather, © 2015

Note: Actual official high and low records may vary slightly from our data, if they occured in-between our weather recording intervals... More about our weather records

Advertising

Remscheid weather history for previous 24 hours

 ConditionsComfort  
Time TempWeatherWind HumidityBarometerVisibility
10:20 AM
Sun, Apr 19
46 °FSunny.2 mph76%30.18 "Hg10 mi
9:50 AM45 °FSunny.5 mph81%30.18 "Hg10 mi
9:20 AM43 °FSunny.6 mph87%30.18 "Hg10 mi
8:50 AM43 °FSunny.5 mph81%30.18 "Hg10 mi
8:20 AM41 °FSunny.3 mph87%30.18 "Hg10 mi
7:50 AM39 °FSunny.3 mph93%30.18 "Hg10 mi
7:20 AM37 °FClear.3 mph93%30.18 "Hg10 mi
6:50 AM36 °FClear.7 mph93%30.18 "Hg10 mi
6:20 AM36 °FClear.5 mph93%30.18 "Hg10 mi
5:50 AM36 °FFog.2 mph87%30.18 "HgN/A
5:20 AM36 °FFog.3 mph93%30.21 "HgN/A
4:50 AM36 °FClear.5 mph93%30.21 "Hg10 mi
4:20 AM37 °FClear.5 mph87%30.21 "Hg10 mi
3:50 AM37 °FClear.3 mph87%30.21 "Hg10 mi
3:20 AM39 °FClear.5 mph81%30.21 "Hg10 mi
2:50 AM39 °FClear.6 mph81%30.24 "Hg10 mi
2:20 AM37 °FClear.6 mph81%30.24 "Hg10 mi
1:50 AM39 °FClear.5 mph75%30.24 "Hg10 mi
1:20 AM39 °FClear.2 mph75%30.24 "Hg10 mi
12:50 AM41 °FClear.3 mph70%30.27 "Hg10 mi
12:20 AM41 °FClear.5 mph70%30.27 "Hg10 mi
11:50 PM
Sat, Apr 18
41 °FClear.6 mph76%30.27 "Hg10 mi
11:20 PM43 °FClear.2 mph66%30.27 "Hg10 mi
10:50 PM43 °FClear.2 mph66%30.27 "Hg10 mi
10:20 PM46 °FClear.5 mph57%30.27 "Hg10 mi
9:50 PM48 °FClear.6 mph50%30.27 "Hg10 mi
9:20 PM52 °FSunny.5 mph41%30.27 "Hg10 mi
8:50 PM54 °FSunny.7 mph35%30.27 "Hg10 mi
8:20 PM54 °FSunny.7 mph35%30.27 "Hg10 mi
7:50 PM54 °FSunny.9 mph38%30.24 "Hg10 mi
7:20 PM55 °FSunny.10 mph33%30.27 "Hg10 mi
6:50 PM57 °FSunny.10 mph31%30.27 "Hg10 mi
6:20 PM57 °FSunny.10 mph29%30.27 "Hg10 mi
5:50 PM57 °FSunny.12 mph31%30.27 "Hg10 mi
5:20 PM57 °FSunny.10 mph33%30.27 "Hg10 mi
4:50 PM57 °FSunny.8 mph33%30.27 "Hg10 mi
4:20 PM57 °FPassing clouds.7 mph33%30.30 "HgN/A
3:50 PM57 °FSunny.9 mph36%30.30 "Hg10 mi
3:20 PM55 °FPassing clouds.8 mph38%30.30 "HgN/A
2:50 PM57 °FSunny.14 mph33%30.33 "Hg10 mi
2:20 PM57 °FSunny.12 mph36%30.33 "Hg10 mi
1:50 PM55 °FSunny.13 mph38%30.33 "Hg10 mi
1:20 PM54 °FSunny.16 mph38%30.33 "Hg10 mi
12:50 PM54 °FSunny.12 mph41%30.33 "Hg10 mi
12:20 PM54 °FPassing clouds.15 mph44%30.33 "HgN/A
11:50 AM52 °FPassing clouds.13 mph44%30.33 "HgN/A
11:20 AM52 °FPassing clouds.10 mph47%30.36 "HgN/A
Weather by CustomWeather, © 2015

See weather overviewHow to use our weather pages